When you browse on this site, cookies collect data to enhance your experience and personalize the content and advertising you see.
Visit our Privacy Policy to learn more. By continuing to use the site, you agree to this use of cookies and data.
  • Em Portugal
  • Lista de países
  • Para 7 dias
  • Temperatura da água
  • Mapas de satélite
  • Mapa do tempo
  • Widgets de tempo
  • user-avatar
    Iniciar Sessão

    Previsão horária em Abomey

    Hoje, 18 Fevereiro, Segunda-feira

    Tempo Temperatura Precipitação Vento Pressão Humidade
    00:00 +30°C° 0 mm 2 m/s 739 mmHg 70%
    01:00 +29°C° 0 mm 2 m/s 739 mmHg 72%
    02:00 +29°C° 0 mm 2 m/s 739 mmHg 73%
    03:00 +29°C° 0 mm 2 m/s 738 mmHg 75%
    04:00 +28°C° 0 mm 2 m/s 738 mmHg 76%
    05:00 +28°C° 0 mm 1 m/s 738 mmHg 78%
    06:00 +28°C° 0 mm 1 m/s 738 mmHg 79%
    07:00 +29°C° 0 mm 1 m/s 739 mmHg 71%
    08:00 +31°C° 0 mm 2 m/s 739 mmHg 63%
    09:00 +34°C° 0 mm 2 m/s 740 mmHg 54%
    10:00 +35°C° 0 mm 1 m/s 740 mmHg 46%
    11:00 +39°C° 0 mm 1 m/s 739 mmHg 37%
    12:00 +41°C° 0 mm 1 m/s 739 mmHg 29%
    13:00 +40°C° 0 mm 1 m/s 738 mmHg 29%
    14:00 +40°C° 0 mm 1 m/s 737 mmHg 30%
    15:00 +39°C° 0 mm 1 m/s 736 mmHg 30%
    16:00 +38°C° 0 mm 2 m/s 736 mmHg 33%
    17:00 +37°C° 0 mm 3 m/s 736 mmHg 37%
    18:00 +37°C° 0 mm 4 m/s 736 mmHg 40%
    19:00 +35°C° 0 mm 4 m/s 737 mmHg 49%
    20:00 +33°C° 0 mm 4 m/s 737 mmHg 58%
    21:00 +30°C° 0 mm 4 m/s 738 mmHg 67%
    22:00 +30°C° 0 mm 4 m/s 738 mmHg 69%
    23:00 +29°C° 0 mm 4 m/s 738 mmHg 71%

    Amanhã, 19 Fevereiro, Terça-feira

    Tempo Temperatura Precipitação Vento Pressão Humidade
    00:00 +29°C° 0 mm 4 m/s 738 mmHg 74%
    01:00 +29°C° 0 mm 3 m/s 737 mmHg 75%
    02:00 +28°C° 0 mm 3 m/s 737 mmHg 76%
    03:00 +28°C° 0 mm 2 m/s 737 mmHg 77%
    04:00 +28°C° 0 mm 2 m/s 737 mmHg 79%
    05:00 +28°C° 0 mm 2 m/s 737 mmHg 80%
    06:00 +27°C° 0 mm 1 m/s 737 mmHg 81%
    07:00 +29°C° 0 mm 2 m/s 738 mmHg 74%
    08:00 +30°C° 0 mm 2 m/s 739 mmHg 67%
    09:00 +32°C° 0 mm 2 m/s 739 mmHg 60%
    10:00 +35°C° 0 mm 2 m/s 739 mmHg 51%
    11:00 +37°C° 0 mm 1 m/s 738 mmHg 43%
    12:00 +41°C° 0 mm 1 m/s 738 mmHg 34%
    13:00 +40°C° 0 mm 1 m/s 737 mmHg 36%
    14:00 +39°C° 0 mm 2 m/s 736 mmHg 38%
    15:00 +37°C° 0 mm 2 m/s 735 mmHg 40%
    16:00 +37°C° 0 mm 3 m/s 735 mmHg 41%
    17:00 +36°C° 0 mm 3 m/s 735 mmHg 43%
    18:00 +36°C° 0 mm 3 m/s 736 mmHg 45%
    19:00 +34°C° 0.2 mm 4 m/s 736 mmHg 54%
    20:00 +32°C° 0.2 mm 4 m/s 737 mmHg 63%
    21:00 +29°C° 0.2 mm 5 m/s 737 mmHg 72%
    22:00 +29°C° 0 mm 4 m/s 737 mmHg 73%
    23:00 +29°C° 0 mm 4 m/s 737 mmHg 74%

    Depois de amanhã, 20 Fevereiro, Quarta-feira

    Tempo Temperatura Precipitação Vento Pressão Humidade
    00:00 +29°C° 0 mm 4 m/s 738 mmHg 75%
    01:00 +28°C° 0 mm 3 m/s 737 mmHg 75%
    02:00 +28°C° 0 mm 3 m/s 737 mmHg 76%
    03:00 +28°C° 0 mm 3 m/s 736 mmHg 77%
    04:00 +28°C° 0 mm 2 m/s 737 mmHg 77%
    05:00 +27°C° 0 mm 2 m/s 737 mmHg 77%
    06:00 +27°C° 0 mm 2 m/s 737 mmHg 78%
    07:00 +29°C° 0 mm 2 m/s 738 mmHg 70%
    08:00 +31°C° 0 mm 2 m/s 738 mmHg 62%
    09:00 +33°C° 0 mm 3 m/s 739 mmHg 55%
    10:00 +36°C° 0 mm 2 m/s 739 mmHg 47%
    11:00 +38°C° 0 mm 2 m/s 738 mmHg 39%
    12:00 +41°C° 0 mm 1 m/s 738 mmHg 31%
    13:00 +41°C° 0 mm 1 m/s 737 mmHg 28%
    14:00 +42°C° 0 mm 1 m/s 736 mmHg 26%
    15:00 +42°C° 0 mm 1 m/s 736 mmHg 23%
    16:00 +40°C° 0 mm 3 m/s 736 mmHg 33%
    17:00 +37°C° 0 mm 4 m/s 736 mmHg 42%
    18:00 +35°C° 0 mm 5 m/s 736 mmHg 52%
    19:00 +33°C° 0 mm 5 m/s 737 mmHg 57%
    20:00 +32°C° 0 mm 5 m/s 737 mmHg 62%
    21:00 +30°C° 0 mm 4 m/s 738 mmHg 67%
    22:00 +30°C° 0 mm 4 m/s 738 mmHg 69%
    23:00 +29°C° 0 mm 4 m/s 738 mmHg 70%

    21 Fevereiro, Quinta-feira

    Tempo Temperatura Precipitação Vento Pressão Humidade
    00:00 +29°C° 0 mm 4 m/s 738 mmHg 72%
    01:00 +29°C° 0 mm 4 m/s 738 mmHg 74%
    02:00 +29°C° 0 mm 3 m/s 738 mmHg 75%
    03:00 +28°C° 0 mm 3 m/s 737 mmHg 77%
    04:00 +28°C° 0 mm 3 m/s 738 mmHg 78%
    05:00 +28°C° 0 mm 3 m/s 738 mmHg 79%
    06:00 +28°C° 0 mm 3 m/s 739 mmHg 80%
    07:00 +29°C° 0 mm 3 m/s 739 mmHg 74%
    08:00 +30°C° 0 mm 3 m/s 740 mmHg 68%
    09:00 +33°C° 0 mm 3 m/s 741 mmHg 61%
    10:00 +34°C° 0 mm 3 m/s 740 mmHg 57%
    11:00 +35°C° 0 mm 3 m/s 740 mmHg 53%
    12:00 +36°C° 0 mm 3 m/s 739 mmHg 49%
    13:00 +36°C° 0 mm 3 m/s 738 mmHg 47%
    14:00 +36°C° 0 mm 3 m/s 738 mmHg 45%
    15:00 +37°C° 0 mm 3 m/s 737 mmHg 44%
    16:00 +36°C° 0 mm 3 m/s 737 mmHg 45%
    17:00 +36°C° 0 mm 3 m/s 737 mmHg 47%
    18:00 +35°C° 0 mm 3 m/s 738 mmHg 49%
    19:00 +34°C° 0.2 mm 3 m/s 738 mmHg 55%
    20:00 +32°C° 0.2 mm 4 m/s 739 mmHg 61%
    21:00 +30°C° 0.2 mm 4 m/s 740 mmHg 68%
    22:00 +29°C° 0 mm 4 m/s 740 mmHg 70%
    23:00 +29°C° 0 mm 4 m/s 739 mmHg 72%

    22 Fevereiro, Sexta-feira

    Tempo Temperatura Precipitação Vento Pressão Humidade
    00:00 +29°C° 0 mm 4 m/s 739 mmHg 74%
    01:00 +28°C° 0 mm 3 m/s 739 mmHg 76%
    02:00 +28°C° 0 mm 3 m/s 738 mmHg 77%
    03:00 +28°C° 0 mm 3 m/s 738 mmHg 79%
    04:00 +28°C° 0 mm 3 m/s 738 mmHg 79%
    05:00 +27°C° 0 mm 3 m/s 739 mmHg 80%
    06:00 +27°C° 0 mm 3 m/s 739 mmHg 81%
    07:00 +29°C° 0 mm 3 m/s 739 mmHg 75%
    08:00 +30°C° 0 mm 3 m/s 740 mmHg 70%
    09:00 +31°C° 0 mm 3 m/s 741 mmHg 64%
    10:00 +34°C° 0 mm 3 m/s 740 mmHg 58%
    11:00 +35°C° 0 mm 3 m/s 740 mmHg 53%
    12:00 +36°C° 0 mm 3 m/s 739 mmHg 47%
    13:00 +36°C° 0.1 mm 2 m/s 738 mmHg 46%
    14:00 +37°C° 0.1 mm 2 m/s 737 mmHg 45%
    15:00 +37°C° 0.1 mm 2 m/s 737 mmHg 45%
    16:00 +36°C° 0 mm 2 m/s 737 mmHg 46%
    17:00 +36°C° 0 mm 3 m/s 737 mmHg 47%
    18:00 +35°C° 0 mm 3 m/s 737 mmHg 48%
    19:00 +34°C° 0.1 mm 3 m/s 738 mmHg 56%
    20:00 +32°C° 0.1 mm 4 m/s 738 mmHg 63%
    21:00 +30°C° 0.1 mm 5 m/s 739 mmHg 70%
    22:00 +29°C° 0 mm 4 m/s 739 mmHg 72%
    23:00 +29°C° 0 mm 4 m/s 738 mmHg 74%

    23 Fevereiro, Sábado

    Tempo Temperatura Precipitação Vento Pressão Humidade
    00:00 +28°C° 0 mm 3 m/s 738 mmHg 75%
    01:00 +28°C° 0 mm 3 m/s 738 mmHg 76%
    02:00 +28°C° 0 mm 3 m/s 737 mmHg 78%
    03:00 +28°C° 0 mm 3 m/s 737 mmHg 79%
    04:00 +27°C° 0 mm 3 m/s 737 mmHg 80%
    05:00 +27°C° 0 mm 2 m/s 738 mmHg 81%
    06:00 +27°C° 0 mm 2 m/s 738 mmHg 81%
    07:00 +28°C° 0 mm 2 m/s 739 mmHg 75%
    08:00 +30°C° 0 mm 3 m/s 739 mmHg 68%
    09:00 +31°C° 0 mm 3 m/s 740 mmHg 62%
    10:00 +34°C° 0 mm 3 m/s 739 mmHg 54%
    11:00 +36°C° 0 mm 3 m/s 739 mmHg 46%
    12:00 +38°C° 0 mm 3 m/s 738 mmHg 38%
    13:00 +38°C° 0 mm 3 m/s 737 mmHg 36%
    14:00 +38°C° 0 mm 2 m/s 737 mmHg 35%
    15:00 +39°C° 0 mm 2 m/s 736 mmHg 33%
    16:00 +37°C° 0 mm 3 m/s 736 mmHg 38%
    17:00 +36°C° 0 mm 4 m/s 736 mmHg 43%
    18:00 +35°C° 0 mm 5 m/s 736 mmHg 48%
    19:00 +34°C° 0.2 mm 4 m/s 737 mmHg 56%
    20:00 +32°C° 0.2 mm 4 m/s 737 mmHg 64%
    21:00 +29°C° 0.2 mm 4 m/s 738 mmHg 72%
    22:00 +29°C° 0 mm 4 m/s 737 mmHg 73%
    23:00 +29°C° 0 mm 4 m/s 737 mmHg 74%
    Mostrar mais